User: anonymous   Login
Location: Lawrence Hall of Science
(37.8785°N, 122.2415°W)
Time: 21:14:51
(UTC-07:00)
Language:

ARGOS - Orbit

View from above orbital plane
View from above orbital plane
View from above satellite
View from above satellite

Ground track
Ground track

The orbit data is extracted from the following two-line orbital elements,

1 25634U 99008A   16121.22498840 -.00000006  00000-0  17776-4 0  9993
2 25634  98.6716 187.8420 0009415 323.6532  36.4004 14.19286238889884
Epoch (UTC): 30 April 2016 05:23:58
Eccentricity: 0.0009415
inclination: 98.6716°
perigee height: 821 km
apogee height: 834 km
right ascension of ascending node: 187.8420°
argument of perigee: 323.6532°
revolutions per day: 14.19286238
mean anomaly at epoch: 36.4004°
orbit number at epoch: 88988

The dashed part of the orbit path shows where the satellite is in the earth's shadow,  

DLR